Volver al catálogo

DELTA 1 DEB

ActivoPO
NORAD 21515·DEBRIS·🇺🇸 United States

Lanzado Jun 12, 1975 desde Vandenberg Space Force Base

Loading…

Próximos Pases (próximas 24 horas)

TLE

ActualizadoSource: Space-Track

Época: Sep 14, 2026, 09:21 UTC

1 21515U 75052GL  26257.38969218 -.00000448  00000-0 -11680-2 0  9997
2 21515  99.6956 297.2863 0273556  30.9706  86.1065 12.98811167674265

Sigue DELTA 1 DEB en tiempo real con AllMySat

Download on the App Store